Regional Weather Roundup
Issued by NWS

Home | Current Version | Previous Version | Graphics & Text | Print | Product List | Glossary On
Versions: 1 2 3 4 5 6 7 8 9 10 11 12 13 14 15 16 17 18 19 20 21 22 23 24 25 26 27 28 29 30 31 32 33 34 35 36 37 38 39 40 41 42 43 44 45 46 47 48 49 50
000
ASUS45 KABQ 260501
RWRNM
NEW MEXICO REGIONAL WEATHER ROUNDUP
NATIONAL WEATHER SERVICE ALBUQUERQUE NM
1100 PM MDT SAT MAR 25 2017

NOTE: "FAIR" MEANS FEW OR NO CLOUDS BELOW 12,000 FEET AGL WITH NO
       SIGNIFICANT WEATHER OR OBSTRUCTIONS TO VISION.

      THIS PRODUCT IS RELEASED AS TWO VERSIONS.  ONE VERSION NEAR
      THE TOP OF THE HOUR CONTAINING PRELIMINARY DATA FROM ALBUQUERQUE
      AND OTHER STATIONS.  A FINAL VERSION WITH ADDITIONAL DATA IS
      ISSUED ABOUT 10 MINUTES AFTER THE HOUR.

NMZ501-503-504-510>518-260600-
NORTHWEST PLATEAU/NORTHCENTRAL MOUNTAINS

CITY           SKY/WX    TMP DP  RH WIND       PRES   REMARKS
FARMINGTON     CLOUDY    42  39  89 SE6       29.94F
LOS ALAMOS     FAIR      43  30  60 W22G36    29.92S
SANTA FE       CLOUDY    49  33  54 NW12      29.94R
TAOS             N/A     43  30  61 W14G26    29.96R
ANGEL FIRE     DRIZZLE   37  30  77 W21       29.97R WCI  26

$$
NMZ402-403-502-505>509-260600-
WESTCENTRAL MOUNTAINS/SOUTHWEST MOUNTAINS

CITY           SKY/WX    TMP DP  RH WIND       PRES   REMARKS
GALLUP         CLOUDY    37  34  89 S7        30.00F WCI  32
GRANTS         MOCLDY    39  34  80 CALM      30.04F
SILVER CITY    FAIR      53  24  33 NW15      29.97R

$$
NMZ407-409-411-412-260600-
SOUTHERN DESERTS

CITY           SKY/WX    TMP DP  RH WIND       PRES   REMARKS
DEMING         FAIR      60  23  24 W13       29.92S
LAS CRUCES     FAIR      62  15  16 W13       29.92R
HOLLOMAN AFB   FAIR      60  14  16 S12       29.88S
ALAMOGORDO     FAIR      64  14  14 S12       29.87R
T OR C         FAIR      58  15  18 W9        29.90R

$$
NMZ519>523-260600-
CENTRAL VALLEYS/CENTRAL HIGHLANDS

CITY           SKY/WX    TMP DP  RH WIND       PRES   REMARKS
ALBUQUERQUE    FAIR      54  27  35 W24G36    29.93R
MORIARTY ARPT  FAIR      56  19  23 W16       29.93R
CLINES CORNERS NOT AVBL
BELEN          FAIR      53  27  35 W15G21    29.94R
SOCORRO        FAIR      61  17  18 W14G20    29.91R

$$
NMZ524>526-539-540-260600-
SOUTHCENTRAL MOUNTAINS

CITY           SKY/WX    TMP DP  RH WIND       PRES   REMARKS
RUIDOSO        NOT AVBL

$$
NMZ527>531-260600-
NORTHEAST HIGHLANDS/NORTHEAST PLAINS

CITY           SKY/WX    TMP DP  RH WIND       PRES   REMARKS
LAS VEGAS      FAIR      46  17  31 S15       29.87F
RATON          MOCLDY    48  27  44 SW9       29.84F
CLAYTON        FAIR      44  32  62 SE7       29.84F

$$
NMZ532>537-260600-
EASTCENTRAL PLAINS

CITY           SKY/WX    TMP DP  RH WIND       PRES   REMARKS
TUCUMCARI      FAIR      57  26  30 SW13G23   29.80S
CANNON AFB     FAIR      48  30  48 SE6       29.85F
CLOVIS AIRPORT FAIR      50  27  40 S9        29.85F

$$
NMZ028-029-538-260600-
SOUTHEAST PLAINS

CITY           SKY/WX    TMP DP  RH WIND       PRES   REMARKS
ROSWELL        FAIR      59  24  26 S10         N/A
ARTESIA        FAIR      57  28  33 S13       29.84F
CARLSBAD       FAIR      62  26  25 S9        29.83F
HOBBS          FAIR      54  25  32 SE3       29.87F


$$




USA.gov is the U.S. government's official web portal to all federal, state and local government web resources and services.